Terminal Aerodrome Forecast
Issued by NWS

Home | Current Version | Previous Version | Text Only | Print | Product List | Glossary On
Versions: 1 2 3 4 5 6 7 8 9 10 11 12 13 14 15 16 17 18 19 20 21 22 23 24 25 26 27 28 29 30 31 32 33 34 35 36 37 38 39 40 41 42 43 44 45 46 47 48 49 50
000
FTAK31 PANC 290532
TAFACD
TAF
PACD 290532Z 2906/3006 15022G32KT P6SM -RA SCT015 OVC025
      TEMPO 2906/2908 4SM -RA BR FEW007 BKN010 OVC025
     FM290800 14031G41KT 2SM -RA BR OVC007
     FM291300 14024G32KT 3SM -RA BR OVC008
     FM300300 20011KT P6SM OVC015=

USA.gov is the U.S. government's official web portal to all federal, state and local government web resources and services.